Terminal Aerodrome Forecast
Issued by NWS Wichita, KS

Home | Current Version | Previous Version | Text Only | Print | Product List | Glossary Off
Versions: 1 2 3 4 5 6 7 8 9 10 11 12 13 14 15 16 17 18 19 20 21 22

463
FTUS43 KICT 190900 AAC
TAFICT
TAF AMD
KICT 190900Z 1909/2006 16009KT P6SM SCT008 OVC015
      TEMPO 1909/1910 BKN008
     FM191000 16009KT 5SM BR OVC007
     FM191300 15009KT 4SM BR OVC003
     FM191700 16007KT P6SM OVC008
     FM192000 16007KT P6SM OVC013=

USA.gov is the U.S. government's official web portal to all federal, state and local government web resources and services.